This demonstration page uses our WeatherBlox Daily Observations layout. Learn more.

Left ArrowRight Arrow

39.08367, -84.50855

Hourly Observations for May 15, 2017

Temp ( °F °C ) Dew Point ( °F °C ) Humidity (%) Winds ( mph kmh ) Pressure ( in mb ) Visibility ( mi km ) Precip ( " mm )
12:53 am 00:53 Clear 68 20 55 12.8 63 63 N N/A 29.91 1013 10 16.0934 N/A
1:53 am 01:53 Clear 62 16.7 57 13.9 84 84 N N/A 29.93 1014 10 16.0934 N/A
2:53 am 02:53 Clear 58 14.4 57 13.9 97 97 N N/A 29.93 1014 10 16.0934 N/A
3:53 am 03:53 Clear 59 15 57 13.9 93 93 NNE 5 7 29.95 1014 10 16.0934 N/A
4:53 am 04:53 Clear 60 15.6 56 13.3 86 86 NNE 5 7 29.97 1015 10 16.0934 N/A
5:53 am 05:53 Clear 58 14.4 53 11.7 84 84 NNE 5 7 29.98 1015 10 16.0934 N/A
6:09 am 06:09 Mostly Clear 57 13.9 53 11.7 87 87 NNE 3 6 30 1016 10 16.0934 N/A
6:53 am 06:53 Sunny 57 13.9 53 11.7 87 87 N N/A 30.01 1016 10 16.0934 N/A
7:53 am 07:53 Sunny 60 15.6 52 11.1 75 75 NE 5 7 30.03 1017 10 16.0934 N/A
8:53 am 08:53 Sunny 64 17.8 50 10 60 60 ENE 6 9 30.05 1018 10 16.0934 N/A
9:53 am 09:53 Sunny 66 18.9 49 9.4 54 54 E 5 7 30.06 1018 10 16.0934 N/A
10:53 am 10:53 Sunny 69 20.6 52 11.1 55 55 E 5 7 30.05 1018 10 16.0934 N/A
11:53 am 11:53 Sunny 72 22.2 54 12.2 53 53 ESE 3 6 30.04 1017 10 16.0934 N/A
12:53 pm 12:53 Sunny 74 23.3 56 13.3 54 54 SSW 6 9 30.02 1017 10 16.0934 N/A
1:53 pm 13:53 Sunny 76 24.4 59 15 56 56 SSW 6 9 30.01 1016 10 16.0934 N/A
2:53 pm 14:53 Sunny 78 25.6 59 15 52 52 VRB 3 6 30 1016 10 16.0934 N/A
3:53 pm 15:53 Sunny 80 26.7 61 16.1 52 52 S 6 9 29.98 1015 10 16.0934 N/A
4:53 pm 16:53 Sunny 81 27.2 60 15.6 49 49 VRB 3 6 29.96 1015 10 16.0934 N/A
5:53 pm 17:53 Mostly Sunny 81 27.2 60 15.6 49 49 N N/A 29.95 1014 10 16.0934 N/A
6:53 pm 18:53 Mostly Sunny 80 26.7 62 16.7 54 54 S 3 6 29.94 1014 10 16.0934 N/A
7:53 pm 19:53 Sunny 77 25 64 17.8 64 64 SE 3 6 29.95 1014 10 16.0934 N/A
8:53 pm 20:53 Clear 68 20 64 17.8 87 87 N N/A 29.97 1015 10 16.0934 N/A
9:53 pm 21:53 Clear 67 19.4 63 17.2 87 87 N N/A 29.97 1015 10 16.0934 N/A
10:53 pm 22:53 Clear 65 18.3 62 16.7 90 90 N N/A 29.98 1015 10 16.0934 N/A
11:53 pm 23:53 Clear 63 17.2 62 16.7 97 97 N N/A 29.98 1015 9 14.48406 N/A

Powered by AerisWeather